N5ZPR Weather Reports


Display with metric or nautical units.
time (UTC)temp
F
wind
direction
speed
MPH
gust
MPH
rain 1hr
in
rain 24hr
in
rain mn
in
humidity
%
barometer
mb
20260906093003 78 0 0.0 0.0 0.00 0.00 0.00 81 1010.1
20260906092004 78 0 0.0 0.0 0.00 0.00 0.00 81 1009.9
20260906091003 79 0 0.0 0.0 0.00 0.00 0.00 80 1009.9
20260906090004 79 0 0.0 0.0 0.00 0.00 0.00 79 1009.9
20260906084004 80 0 0.0 0.0 0.00 0.00 0.00 78 1010.0
20260906083004 80 0 0.0 0.0 0.00 0.00 0.00 77 1010.0
20260906082003 80 0 0.0 0.0 0.00 0.00 0.00 77 1010.6
20260906080003 81 0 0.0 0.0 0.00 0.00 0.00 76 1010.6
20260906075003 81 0 0.0 0.0 0.00 0.00 0.00 75 1010.6
20260906074003 82 0 0.0 0.0 0.00 0.00 0.00 75 1010.6
20260906073003 82 0 0.0 0.0 0.00 0.00 0.00 75 1010.6
20260906072003 82 0 0.0 0.0 0.00 0.00 0.00 74 1010.6
20260906071004 82 0 0.0 0.0 0.00 0.00 0.00 74 1010.6
20260906070003 82 0 0.0 0.0 0.00 0.00 0.00 74 1010.6
20260906065003 83 0 0.0 0.0 0.00 0.00 0.00 73 1010.6
20260906064004 83 0 0.0 0.0 0.00 0.00 0.00 73 1010.6
20260906063004 83 0 0.0 0.0 0.00 0.00 0.00 73 1010.7
20260906062003 83 0 0.0 0.0 0.00 0.00 0.00 72 1010.8
20260906061003 83 0 0.0 0.0 0.00 0.00 0.00 72 1010.8
20260906060004 84 0 0.0 0.0 0.00 0.00 0.00 72 1010.5
20260906054003 85 0 0.0 0.0 0.00 0.00 0.00 70 1010.5
20260906052003 84 0 0.0 0.0 0.00 0.00 0.00 71 1010.4
20260906051004 85 0 0.0 0.0 0.00 0.00 0.00 70 1010.4
20260906050004 85 0 0.0 0.0 0.00 0.00 0.00 70 1010.4
20260906045003 85 0 0.0 0.0 0.00 0.00 0.00 69 1010.4
20260906044003 85 0 0.0 0.0 0.00 0.00 0.00 69 1010.4
20260906043003 86 0 0.0 0.0 0.00 0.00 0.00 68 1010.4
20260906042003 86 0 0.0 0.0 0.00 0.00 0.00 68 1010.4
20260906041003 86 0 0.0 0.0 0.00 0.00 0.00 67 1010.4
20260906040003 86 0 0.0 0.0 0.00 0.00 0.00 67 1010.4
20260906033004 87 140 0.0 0.0 0.00 0.00 0.00 65 1010.5
20260906031004 87 153 0.0 0.0 0.00 0.00 0.00 63 1010.5
20260906030004 87 121 0.0 0.0 0.00 0.00 0.00 62 1009.2
20260906025003 88 115 0.0 0.0 0.00 0.00 0.00 61 1009.2
20260906024004 88 157 0.0 0.0 0.00 0.00 0.00 61 1009.2
20260906023004 89 115 0.0 0.0 0.00 0.00 0.00 60 1009.2
20260906022004 88 133 0.0 0.0 0.00 0.00 0.00 61 1009.2
20260906021004 88 131 0.0 0.0 0.00 0.00 0.00 60 1009.2
20260906020004 89 155 0.0 0.0 0.00 0.00 0.00 59 1009.2
20260906014003 90 115 0.0 0.0 0.00 0.00 0.00 58 1009.2
20260906013003 90 150 0.0 0.0 0.00 0.00 0.00 56 1009.2
20260906012003 91 115 0.0 0.0 0.00 0.00 0.00 55 1008.5
20260906011003 92 132 0.0 0.0 0.00 0.00 0.00 53 1008.5
20260906005003 94 123 0.0 2.0 0.00 0.00 0.00 47 1008.5
20260906004003 97 130 0.0 0.0 0.00 0.00 0.00 41 1008.5
20260906003003 96 152 0.0 1.0 0.00 0.00 0.00 41 1008.5
20260906002004 97 114 0.0 1.0 0.00 0.00 0.00 40 1008.3
20260906000003 98 88 0.0 1.0 0.00 0.00 0.00 39 1008.1
20260905235003 98 167 0.0 0.0 0.00 0.00 0.00 38 1008.1
20260905232004 99 96 0.0 0.0 0.00 0.00 0.00 36 1008.1
20260905231003 99 45 0.0 2.0 0.00 0.00 0.00 36 1008.1
20260905230003 99 105 0.0 0.0 0.00 0.00 0.00 36 1008.1
20260905225003 100 36 0.0 1.0 0.00 0.00 0.00 36 1008.1
20260905224003 100 118 0.0 2.0 0.00 0.00 0.00 36 1008.1
20260905223004 100 100 0.0 1.0 0.00 0.00 0.00 35 1008.1
20260905222004 100 108 0.0 2.0 0.00 0.00 0.00 36 1008.4
20260905221003 101 122 0.0 2.0 0.00 0.00 0.00 35 1008.4
20260905220004 101 37 0.0 6.0 0.00 0.00 0.00 35 1008.4
20260905215004 101 12 0.0 5.0 0.00 0.00 0.00 35 1008.4
20260905214004 102 150 0.0 2.0 0.00 0.00 0.00 35 1009.3
20260905213004 101 237 0.0 2.0 0.00 0.00 0.00 36 1009.3
20260905212004 100 36 0.0 2.0 0.00 0.00 0.00 36 1009.3
20260905211004 100 157 1.0 5.0 0.00 0.00 0.00 37 1009.3
20260905210004 101 157 0.0 5.0 0.00 0.00 0.00 36 1009.3
20260905205004 102 168 0.0 2.0 0.00 0.00 0.00 36 1009.3
20260905204003 102 161 0.0 1.0 0.00 0.00 0.00 36 1009.3
20260905203003 101 181 0.0 1.0 0.00 0.00 0.00 37 1009.5
20260905201004 101 355 0.0 1.0 0.00 0.00 0.00 37 1009.6
20260905200003 100 15 0.0 0.0 0.00 0.00 0.00 38 1010.0
20260905195004 101 130 0.0 1.0 0.00 0.00 0.00 37 1010.5
20260905194004 100 128 0.0 2.0 0.00 0.00 0.00 38 1010.5
20260905193004 100 161 0.0 0.0 0.00 0.00 0.00 39 1010.5
20260905192003 99 116 0.0 0.0 0.00 0.00 0.00 40 1011.0
20260905191003 98 136 0.0 2.0 0.00 0.00 0.00 41 1011.0
20260905190004 98 74 0.0 1.0 0.00 0.00 0.00 41 1011.0
20260905185003 98 24 0.0 0.0 0.00 0.00 0.00 40 1011.3
20260905184003 98 230 0.0 1.0 0.00 0.00 0.00 42 1011.3
20260905183003 98 109 0.0 0.0 0.00 0.00 0.00 41 1011.9
20260905182003 98 161 0.0 0.0 0.00 0.00 0.00 41 1011.9
20260905181003 98 144 0.0 0.0 0.00 0.00 0.00 41 1011.9
20260905180004 97 171 0.0 0.0 0.00 0.00 0.00 43 1011.9
20260905175003 96 114 0.0 0.0 0.00 0.00 0.00 43 1012.5
20260905174004 97 102 0.0 0.0 0.00 0.00 0.00 43 1012.5
20260905173004 96 8 0.0 0.0 0.00 0.00 0.00 43 1012.5
20260905172004 96 67 0.0 0.0 0.00 0.00 0.00 45 1012.5
20260905171003 95 130 0.0 0.0 0.00 0.00 0.00 46 1012.5
20260905170003 95 107 0.0 0.0 0.00 0.00 0.00 45 1012.5
20260905165004 95 15 0.0 0.0 0.00 0.00 0.00 47 1012.5
20260905163003 94 142 0.0 0.0 0.00 0.00 0.00 46 1012.5
20260905162004 94 127 0.0 0.0 0.00 0.00 0.00 49 1012.5
20260905161003 93 313 0.0 0.0 0.00 0.00 0.00 51 1012.5
20260905160004 93 183 0.0 0.0 0.00 0.00 0.00 51 1012.5
20260905155004 91 5 0.0 0.0 0.00 0.00 0.00 54 1012.5
20260905154004 91 159 0.0 0.0 0.00 0.00 0.00 55 1012.3
20260905153003 91 213 0.0 0.0 0.00 0.00 0.00 56 1012.3
20260905152004 89 224 0.0 0.0 0.00 0.00 0.00 59 1012.3
20260905151003 88 249 0.0 0.0 0.00 0.00 0.00 59 1012.3
20260905150004 88 164 0.0 0.0 0.00 0.00 0.00 60 1012.3
20260905145004 86 87 0.0 0.0 0.00 0.00 0.00 64 1012.6
20260905144004 85 256 0.0 0.0 0.00 0.00 0.00 68 1012.6
20260905142004 83 0 0.0 0.0 0.00 0.00 0.00 72 1012.3
20260905141004 82 0 0.0 0.0 0.00 0.00 0.00 75 1012.3
20260905140004 81 0 0.0 0.0 0.00 0.00 0.00 77 1012.3
20260905134003 79 0 0.0 0.0 0.00 0.00 0.00 81 1011.5
20260905133003 79 0 0.0 0.0 0.00 0.00 0.00 82 1011.5
20260905131003 78 0 0.0 0.0 0.00 0.00 0.00 82 1011.5
20260905130004 78 0 0.0 0.0 0.00 0.00 0.00 83 1011.5
20260905125004 77 0 0.0 0.0 0.00 0.00 0.00 85 1011.5
20260905124003 76 0 0.0 0.0 0.00 0.00 0.00 85 1011.7
20260905123003 76 0 0.0 0.0 0.00 0.00 0.00 84 1011.7
20260905122003 76 0 0.0 0.0 0.00 0.00 0.00 84 1011.7
20260905121004 77 0 0.0 0.0 0.00 0.00 0.00 84 1011.6
20260905120003 76 0 0.0 0.0 0.00 0.00 0.00 84 1011.6
20260905115003 77 0 0.0 0.0 0.00 0.00 0.00 83 1011.6
20260905114003 77 0 0.0 0.0 0.00 0.00 0.00 83 1011.6
20260905113003 77 0 0.0 0.0 0.00 0.00 0.00 83 1011.3
20260905112003 77 0 0.0 0.0 0.00 0.00 0.00 82 1011.3
20260905111004 78 0 0.0 0.0 0.00 0.00 0.00 81 1011.3
20260905110004 78 0 0.0 0.0 0.00 0.00 0.00 80 1011.3
20260905105003 78 0 0.0 0.0 0.00 0.00 0.00 80 1011.5
20260905104003 79 0 0.0 0.0 0.00 0.00 0.00 78 1011.5
20260905102003 80 0 0.0 0.0 0.00 0.00 0.00 77 1011.3
20260905101003 79 0 0.0 0.0 0.00 0.00 0.00 78 1011.3
20260905100004 78 0 0.0 0.0 0.00 0.00 0.00 81 1011.2
20260905095004 78 0 0.0 0.0 0.00 0.00 0.00 81 1011.2
20260905094004 78 0 0.0 0.0 0.00 0.00 0.00 80 1011.2